Location: Newark
(38.6492°N, 88.9193°W)
Time: 00:01:04
(UTC+00:00)

LightSail 2 - Pass Details

Date: 14 November 2019
Orbit: 696 x 730 km, 24.0° (Epoch: 15 December)

Event Time Altitude Azimuth Distance (km) Brightness Sun altitude
Exits shadow 10:44:01 14° 205° (SSW) 1,978 7.2 -22.0°
Maximum altitude 10:45:46 16° 182° (S) 1,855 7.3 -21.7°
Drops below altitude 10° 10:48:49 10° 146° (SSE) 2,213 8.2 -21.1°
Sets 10:52:12 0° 125° (SE) 3,134 9.5 -20.4°
